Volver al catálogo

STARLINK-34746

ActivoComunicacionesSSO
NORAD 64847·PAYLOAD·🇺🇸 United States

Lanzado Jul 19, 2025 desde Vandenberg Space Force Base

Loading…

Próximos Pases (próximas 24 horas)

TLE

ActualizadoSource: CelesTrak SupGP

Época: Sep 14, 2026, 20:44 UTC

1 64847C 25152F   26257.86437500  .00005054  00000+0  15691-3 0  2574
2 64847  97.2841 108.5376 0001941  91.6847 230.6443 15.33431043    12

Sigue STARLINK-34746 en tiempo real con AllMySat

Download on the App Store